Louisville Bowman, KY

7:42 PM EDT on August 19, 2019 (GMT -0400)
Bowman

Weather History for KLOU - May, 2019

Change the Weather History Date:

Thursday, May 16, 2019

  Actual Average Record
Temperature  
Mean Temperature 66 °F 66 °F  
Max Temperature 81 °F 76 °F 89 °F (1962)
Min Temperature 51 °F 56 °F 35 °F (1998)
Degree Days  
Heating Degree Days 0 2  
Month to date heating degree days 47 53  
Since 1 July heating degree days 4101 4244  
Cooling Degree Days 1 4  
Month to date cooling degree days 31 38  
Year to date cooling degree days 48 72  
Growing Degree Days 16 (Base 50)    
Moisture  
Dew Point 55 °F    
Average Humidity 67    
Maximum Humidity 89    
Minimum Humidity 45    
Precipitation  
Precipitation 0.14 in 0.17 in 2.80 in (1990)
Month to date precipitation 2.29 2.83  
Year to date precipitation 25.70 17.63  
Sea Level Pressure  
Sea Level Pressure 29.95 in    
Wind  
Wind Speed 6 mph (South)    
Max Wind Speed 28 mph    
Max Gust Speed 42 mph    
Visibility 8 miles    
Events Fog , Rain    
T = Trace of Precipitation, MM = Missing Value Source: NWS Daily Summary

Daily Weather History Graph

Daily Weather History Graph

Search for Another Location

Airport or City:

Astronomy

May. 16, 2019 Rise Set
Actual Time 6:31 AM EDT 8:47 PM EDT
Civil Twilight 6:01 AM EDT 9:17 PM EDT
Nautical Twilight 5:24 AM EDT 9:53 PM EDT
Astronomical Twilight 4:44 AM EDT 10:34 PM EDT
Moon 6:29 PM EDT (5/16) 5:25 AM EDT (5/16)
Length of Visible Light 15h 15m
Length of Day
14h 16m
Waxing Gibbous, 94% of the Moon is Illuminated
May 16
Waxing Gibbous
May 18
Full
May 26
Last Quarter
Jun 3
New
Jun 10
First Quarter

Hourly Weather History & Observations

Time (EDT) Temp. Heat Index Dew Point Humidity Pressure Visibility Wind Dir Wind Speed Gust Speed Precip Events Conditions
12:53 AM 55.9 °F - 51.1 °F 84% 30.01 in 10.0 mi Calm Calm - N/A   Clear
1:53 AM 55.9 °F - 50.0 °F 80% 30.01 in 10.0 mi Calm Calm - N/A   Clear
2:53 AM 55.0 °F - 50.0 °F 83% 29.99 in 10.0 mi Calm Calm - N/A   Clear
3:53 AM 53.1 °F - 50.0 °F 89% 29.99 in 6.0 mi Calm Calm - N/A   Clear
4:53 AM 53.1 °F - 50.0 °F 89% 30.00 in 7.0 mi Calm Calm - N/A   Clear
5:53 AM 51.1 °F - 48.9 °F 92% 30.01 in 2.0 mi Calm Calm - N/A   Clear
6:07 AM 52.0 °F - 48.0 °F 86% 30.01 in 4.0 mi Calm Calm - N/A   Clear
6:11 AM 51.1 °F - 48.0 °F 89% 30.01 in 1.2 mi Calm Calm - N/A   Clear
6:20 AM 51.1 °F - 48.9 °F 92% 30.01 in 0.5 mi Calm Calm - N/A Fog Fog
6:27 AM 51.1 °F - 48.9 °F 92% 30.01 in 2.5 mi Calm Calm - N/A   Clear
6:53 AM 52.0 °F - 48.9 °F 89% 30.01 in 5.0 mi Calm Calm - N/A   Clear
7:53 AM 57.0 °F - 52.0 °F 83% 30.02 in 9.0 mi Calm Calm - N/A   Clear
8:53 AM 61.0 °F - 55.0 °F 81% 30.03 in 8.0 mi Calm Calm - N/A   Clear
9:53 AM 66.9 °F - 57.9 °F 73% 30.01 in 10.0 mi SSW 4.6 mph - N/A   Clear
10:53 AM 70.0 °F - 57.0 °F 63% 30.00 in 10.0 mi SSW 9.2 mph - N/A   Clear
11:53 AM 73.0 °F - 57.0 °F 57% 29.99 in 10.0 mi North - - N/A   Clear
12:53 PM 73.9 °F - 55.9 °F 53% 29.98 in 10.0 mi Variable 3.5 mph - N/A   Partly Cloudy
1:53 PM 77.0 °F - 57.9 °F 52% 29.96 in 10.0 mi South 8.1 mph - N/A   Partly Cloudy
2:53 PM 78.1 °F - 55.9 °F 46% 29.93 in 10.0 mi SSW 8.1 mph - N/A   Clear
3:53 PM 81.0 °F 81.1 °F 57.9 °F 45% 29.90 in 10.0 mi SSW 9.2 mph - N/A   Clear
4:53 PM 81.0 °F 81.1 °F 57.9 °F 45% 29.88 in 10.0 mi SW 8.1 mph 19.6 mph N/A   Clear
5:53 PM 80.1 °F 80.7 °F 59.0 °F 48% 29.86 in 10.0 mi SW 12.7 mph 17.3 mph N/A   Clear
6:53 PM 80.1 °F 80.9 °F 60.1 °F 50% 29.86 in 10.0 mi SW 9.2 mph - N/A   Clear
7:53 PM 79.0 °F - 61.0 °F 54% 29.85 in 10.0 mi SSW 6.9 mph - N/A   Overcast
8:53 PM 66.9 °F - 59.0 °F 76% 29.89 in 10.0 mi ENE 17.3 mph 31.1 mph 0.00 in Rain Light Rain
9:43 PM 66.0 °F - 61.0 °F 84% 29.85 in 10.0 mi South 15.0 mph - 0.14 in Rain Light Rain
9:53 PM 66.0 °F - 61.0 °F 84% 29.84 in 10.0 mi SSE 9.2 mph - 0.14 in   Mostly Cloudy
10:09 PM 66.0 °F - 62.1 °F 87% 29.87 in 10.0 mi Calm Calm - N/A   Scattered Clouds
10:53 PM 64.0 °F - 60.1 °F 87% 29.88 in 10.0 mi SSE 6.9 mph - N/A   Clear
11:53 PM 64.0 °F - 59.0 °F 84% 29.86 in 10.0 mi SSE 6.9 mph - N/A   Clear